Lid_Strength_Index
2 2 2 2 2 2 1 1 2 2 2 2 1 1 0 0 0 -0 -0 -0 -0 0 0 0 0 0 3 6 7 1 -2 -2 1 4 5 5 6 6 8 7 7 9 8 7 7 7 8
2 2 2 2 2 2 2 2 1 2 2 2 2 2 1 0 0 0 -0 -0 -0 -0 0 0 0 1 4 8 4 2 1 1 4 4 5 4 5 5 7 7 8 7 7 8 8 8 8
2 2 2 2 2 3 2 2 2 2 2 2 2 3 2 1 0 0 -0 -0 -0 -0 -0 -0 -0 2 6 6 4 3 4 4 4 5 6 5 5 6 6 8 7 8 9 9 9 8 8
2 2 2 2 3 3 2 2 2 2 2 3 3 3 3 3 1 0 0 0 0 0 0 0 -0 3 6 5 3 5 5 6 4 5 5 5 5 6 7 7 8 9 9 11 8 8 8
2 2 2 2 3 3 3 3 3 3 3 3 3 3 3 3 2 0 1 0 1 0 0 0 2 4 7 4 6 4 5 7 6 5 5 5 5 7 7 9 10 9 11 10 10 8 8
1 1 2 3 3 2 3 3 3 3 3 3 3 3 3 3 2 1 0 1 0 1 1 1 4 6 6 7 5 5 4 5 6 6 7 7 7 9 9 10 13 11 11 10 10 9 9
1 1 1 1 1 1 1 1 2 3 3 3 3 3 2 3 3 2 1 2 5 6 4 6 6 6 6 5 4 5 5 5 5 7 9 8 10 11 10 9 8 10 10 10 9 9 9
1 1 1 1 1 1 1 1 1 1 2 3 3 3 3 2 1 1 2 5 5 4 7 5 6 5 5 5 7 6 5 8 8 10 9 10 12 9 8 9 10 11 11 11 10 10 10
1 1 1 1 0 0 0 1 0 0 1 1 1 2 1 1 1 3 4 5 2 3 7 7 6 7 6 5 7 7 6 7 8 9 10 11 10 9 10 11 11 11 12 11 11 10 10
1 1 0 -0 -0 -0 -0 -0 0 0 1 1 1 1 2 1 4 4 5 4 3 3 10 9 8 7 6 6 8 5 5 7 8 9 9 10 9 11 11 11 10 13 10 10 11 11 14
1 0 0 -0 -0 -0 0 -0 -0 -0 0 0 1 1 1 2 2 4 4 3 3 4 16 8 8 5 6 7 7 8 5 7 9 9 9 11 11 11 12 11 10 12 10 11 11 11 12
1 1 1 0 -0 -0 0 0 0 0 0 -0 0 1 1 2 2 2 2 3 3 12 17 10 8 9 9 8 8 7 8 7 7 9 10 11 11 11 11 11 11 11 11 11 11 12 18
1 1 1 1 0 0 0 0 0 0 -0 0 0 1 2 1 5 2 2 4 12 15 8 12 10 9 9 10 9 9 10 11 11 13 13 13 13 12 11 13 11 11 11 17 18 18 17
1 1 1 1 2 1 1 1 1 0 0 0 1 2 3 3 2 2 3 8 16 11 10 9 10 10 11 9 10 10 10 11 10 10 11 14 16 13 12 12 12 12 12 17 18 17 16
2 2 2 2 2 2 2 2 2 1 1 0 0 2 3 3 1 2 7 13 13 11 11 10 10 11 11 10 10 11 11 11 10 10 12 13 14 13 12 11 11 12 14 11 15 15 15
2 2 2 2 3 3 3 3 3 2 2 1 2 3 3 2 1 3 8 12 10 10 10 11 13 10 12 12 12 11 11 10 11 9 9 11 16 14 13 11 11 12 11 14 14 19 18
2 2 2 3 3 3 3 3 3 3 2 1 3 6 3 1 0 5 11 10 9 8 9 10 11 13 11 12 12 12 11 11 10 11 11 11 11 16 13 13 12 14 14 13 12 14 17
3 3 3 4 4 4 4 4 4 4 3 2 5 10 4 2 7 7 9 8 9 10 9 10 11 12 13 12 12 12 12 12 10 11 13 11 11 15 14 14 14 13 12 12 14 17 16
3 3 3 4 4 4 4 4 4 4 4 4 7 7 4 4 11 11 9 10 9 10 10 10 11 11 12 13 14 12 12 12 11 11 11 11 12 16 16 14 14 15 13 14 14 13 16
3 4 4 4 4 4 4 4 5 4 3 4 7 10 8 7 9 10 12 12 11 9 9 10 11 11 13 14 13 13 13 12 11 11 11 10 12 14 15 14 13 16 15 15 13 16 15
4 4 4 4 4 4 4 4 5 4 3 3 6 10 10 12 10 11 11 11 12 12 9 10 10 10 13 14 14 14 13 13 12 10 12 11 14 14 15 15 15 14 15 16 17 14 15
3 4 4 4 4 4 4 5 5 5 4 5 8 9 8 10 10 11 12 12 12 11 11 12 12 11 12 14 12 14 13 13 13 12 13 13 14 15 17 17 18 17 16 15 16 14 17
3 3 3 4 4 4 4 4 5 5 5 6 6 6 7 8 10 11 10 10 11 10 10 11 11 12 13 12 13 13 12 12 11 12 13 14 15 17 16 19 19 20 19 16 15 14 15
3 3 3 3 4 4 4 4 4 5 6 6 7 7 8 10 10 10 10 11 11 10 12 12 13 13 14 12 12 13 13 14 14 15 14 15 15 16 17 20 21 16 19 17 15 15 15
3 3 3 3 3 3 3 3 3 4 5 7 7 7 7 11 11 12 12 12 12 13 13 14 14 14 12 15 15 17 17 17 17 17 16 16 15 18 19 20 17 18 19 18 16 14 13
3 3 3 3 3 3 3 3 3 3 3 5 7 7 7 9 11 12 12 12 12 12 14 14 14 13 13 15 16 18 19 17 20 18 16 17 16 16 19 19 20 17 15 14 14 15 14
3 3 3 3 3 3 3 3 3 3 3 5 6 6 7 8 9 10 11 12 12 12 12 14 14 13 12 14 16 17 18 17 19 19 19 16 15 17 16 17 15 14 14 13 17 15 14
3 3 3 3 3 3 3 3 3 3 3 5 5 6 7 7 9 10 10 11 11 11 12 13 13 13 14 15 14 13 14 15 15 14 15 15 15 17 15 17 19 12 14 15 15 14 14
4 3 3 3 3 3 3 3 3 3 4 5 6 6 6 7 10 9 10 10 11 11 12 12 13 13 11 13 13 13 15 17 16 17 16 16 13 14 14 15 14 14 14 14 13 13 13